ImprimablePdf
Running Tour > 2011 - Antwerpen, 17/04/2011, BEL - DVV Antwerp 10 Miles
Liste des rapports > DVV Antwerp 10 Miles - Classement + Video
Recherche: Page: [1] 2 3
551 Entrées
 
Les réclamations ne sont plus acceptées, les résultats sont considérés comme définitifs.
RangNrNomIOCEquipeTempsTkmMoy.ScrLocalité
1.6930FSCHONEVELD MarianneNLDFABORY1:09:144:19 13.95668X
2.1251FDRUYTS LeentjeBEL1:11:044:25 13.59918DEURNE
3.5669FGILLEGOT YvonneBEL1:11:174:26 13.55952KNOKKE-HEIST
4.12928FBOSMANS IlseBEL1:11:184:26 13.55955MERKSEM (ANTWER
5.12926FBOEYKENS ChristineBEL1:11:284:27 13.52980MERKSEM
6.4310FTEN BRUGGENCATE AukeNLDBURGER SERVICES NV1:11:364:27 13.491002VLISSINGEN
7.13596FLEDUC NathalieBELSEAT1:12:404:31 13.291180
8.6629FRUTTEN CindyBEL1:12:454:32 13.281199VEERLE
9.171FSANSEN KatrienBEL1:13:194:34 13.171299BORGERHOUT
10.15870FVAN REMOORTEL Sifie1:13:214:34 13.171306
11.5124FWENS PetraBELFEBELCO1:14:124:37 13.021491STABROEK
12.2088FHAENTJENS HildeBEL1:14:534:40 12.901637VERREBROEK
13.639FDE BUYSSCHER KarineBEL1:15:334:42 12.781795BRUXELLES
14.3604FNORGA KatelijneBEL1:16:474:47 12.582114HAACHT
15.4955FDESSEIN JohannaBELFEBELCO1:18:124:52 12.352496RONSE
16.6857FHAVERMANS HildeBELTALENT IT1:19:084:55 12.212752BOUTERSEM
17.2184FGEPTS LilianeBEL1:19:294:57 12.152855MERELBEKE
18.7301FSEMAY ElkeBEL1:19:374:57 12.132904ANTWERPEN 1
19.7661FRUBBENS BernadetteBELALCON1:19:434:58 12.122936PUURS
20.12314FFOUBERT AnnBELLESSIUS1:19:474:58 12.102955BORNEM
21.8554FVERMEIREN IlseBEL1:19:534:58 12.092988ST. LENAARTS
22.12474FJACOBS SandraBEL1:19:574:59 12.083009ZWIJNDRECHT
23.12477FKERREMANS SonjaBEL1:19:584:59 12.083016MELSELE
24.6912FAERTS KarineBELFERRANTI COMPUTER SYSTEMS1:20:044:59 12.063049KRUIBEKE
25.8425FHELLEMANS TanjaBEL1:20:165:00 12.033117EKEREN
26.8176FVIDAL MarinaDEU1:20:205:00 12.023137KOELN
27.8444FROEYMANS GreetBEL1:20:215:00 12.023143EKEREN (ANTWERP
28.8829FSMET AnnBEL1:20:535:02 11.943314MERKSEM
29.7109FDEJONGHE MiekBELSONEPAR BELGIUM1:21:405:05 11.833562NIEUWMUNSTER
30.10338FDE BLANGER SofieBELAZ NIKOLAAS1:21:425:05 11.823578LOKEREN
31.5579FHUYBRECHTS IsabelleBEL1:21:495:05 11.803610OUD-TURNHOUT
32.1248FVRANCKEN SandraBEL1:22:025:06 11.773669GREMBERGEN
33.10682FCORNELISSEN SylvieBEL1:22:325:08 11.703835BUNSBEEK
34.3061FWOUTERS KatrienBEL1:22:425:09 11.683891GENT
35.3811FBROOTHAERTS PeggyBEL1:23:095:10 11.624025BRECHT
36.11390FBONGAERTS AnoukBELCENTEA1:23:135:11 11.614050BRASSCHAAT
37.10048FVAN MOER ElsBEL1:23:165:11 11.604080DEURNE
38.11466FROELANDT KarinBEL1:23:205:11 11.594106BEVEREN-WAAS
39.11973FVLIJMEN VAN ReneeBEL1:23:215:11 11.594110PEER
40.5715FWYNANT HildeBEL1:23:295:12 11.574164LONDERZEEL
41.10429FONGENA KlaartjeBELINEOS NV1:23:415:12 11.544216LOKEREN
42.7660FDE BOEY ElsBELALCON1:23:415:12 11.544219KRUIBEKE
43.6251FGELUYKENS AnnickBEL1:23:415:12 11.544221ZOERSEL
44.6874FVAN CASTEREN PeggyBELJANSSEN CILAG JOHNSON & J1:23:495:13 11.524281HERSELT
45.18903FGRAUWELS KatleenBEL1:23:585:13 11.504331
46.7921FDE SCHRIJVER ElkeBELHP1:24:015:14 11.504346OPWIJK
47.10793FSOMERS PeggyBEL1:24:155:15 11.464447KAPELLE OP DEN
48.14073FVERDYCK IlseBEL1:24:185:15 11.464461
49.18910FVAN UYTVEN NadineBEL1:24:235:15 11.444499
50.10305FDAEMS LiesBELCD&V - RUN1:24:265:15 11.444513KASTERLEE
51.336FDANIELS NancyBEL1:24:335:16 11.424539MARBAIS
52.58FVAN DEN BUSSCHE IngridBEL1:24:455:16 11.404602TONGRINNE
53.2299FPOELMANS KatrienBEL1:25:025:17 11.364713ZOERSEL
54.18594FBOSTEELS AnnBEL1:25:165:18 11.334800
55.12447FBOONE NancyBELUZA1:25:165:18 11.334801RUMST
56.8543FVAN DEN BROEK EllenBEL1:25:175:18 11.324820HOOGSTRATEN
57.19255FVAN DESSEL RitaBEL1:25:265:19 11.304867
58.11183FPELEMAN EstrellaBEL1:25:575:21 11.245040KAPELLEN
59.13691FKLAPPER MalgorsataBELTOTAL1:26:015:21 11.235057
60.11359FKONINGS IlseBEL1:26:035:21 11.225068KALMTHOUT
61.1387FVERHEES JoyceBEL1:26:035:21 11.225070SCHILDE
62.19351FSAELEN LucBEL1:26:215:22 11.195188
63.10049FEYCKERMAN InezBEL1:26:325:23 11.165254ANTWERPEN 2
64.19168FBRADT ElseBEL1:26:325:23 11.165255
65.9308FMISTIAEN KatrienBEL1:26:325:23 11.165262IZEGEM
66.19190FHOFKENS HildeBEL1:26:335:23 11.165264
67.4431FJANS PetraBEL1:27:025:25 11.105431GENK
68.13296FFABRY GigiBEL1:27:045:25 11.095447HULSHOUT
69.9935FDECKMYN SabineBELDEFENSIE1:27:095:25 11.085477BERCHEM (ANTWER
70.2178FZEGERS CarlaNLD1:27:145:26 11.075519KOEWACHT
71.4419FVERMEIREN KristelBEL1:27:225:26 11.055570SCHOTEN
72.3904FDERIJCKE AnnBEL1:27:365:27 11.025673HERENTALS
73.5866FVANDORPE SandraBEL1:27:425:27 11.015708STEENOKKERZEEL
74.3583FDE RAEYMAEKERS NellyBEL1:27:495:28 11.005759WIJNEGEM
75.18548FVAN HYFTE ElsBEL1:27:505:28 11.005767
76.1973FVAN DEN BOSSCHE ElsBEL1:27:515:28 10.995770HERENTALS
77.3002FFOGED StineBEL1:27:525:28 10.995783GENT
78.12538FJANSSEN MartineBEL1:27:555:28 10.995809BRECHT
79.4907FMOUTON HildeBELFEBELCO1:27:555:28 10.995810SLEIDINGE
80.5840FMYLLE GodewinaBEL1:28:045:29 10.975858HERENT
81.8466FVERHEYEN MichelBEL1:28:055:29 10.965859EKEREN (ANTWERP
82.18498FDE POOTER DianeBEL1:28:175:30 10.945944
83.6187FMARTENS AnnBEL1:28:195:30 10.945959ANTWERPEN 5
84.13010FSCHEIPERS AnnBEL1:28:215:30 10.935970STABROEK
85.6162FDE KORT IngridBEL1:28:225:30 10.935978WEERT
86.3031FDROESBEKE SabineBEL1:28:235:30 10.935980BERLARE
87.13631FDE COSTER PeggyBELTOTAL1:28:245:30 10.925995
88.6418FVAES KathleenBEL1:28:385:31 10.906080ANTWERPEN 1
89.15725FVAN LOENHOUT Katleen1:28:415:31 10.896112
90.5145FMEIRE AnBEL1:28:425:31 10.896116
91.4145FVANDER SCHUEREN AnnekeBEL1:28:445:31 10.886126ZWIJNAARDE
92.4717FLANSLOTS WendyBEL1:28:565:32 10.866209TURNHOUT
93.7274FSANGVIK MeretheBEL1:28:585:32 10.866226ELSENE
94.1764FLAWRENCE RachelGBR1:28:595:32 10.856237WITHAM
95.18393FMARIN AnnickBEL1:29:055:33 10.846271
96.4684FGAKENS MicheleBEL1:29:055:33 10.846272BORNEM
97.3961FVAN ELSACKER LieveBEL1:29:055:33 10.846273OOSTMALLE
98.4770FRAMAUT GrietBEL1:29:075:33 10.846289BERCHEM
99.2942FBOGAERTS SuzyBEL1:29:135:33 10.826336EKEREN
100.7888FVUCHELEN KathleenBEL1:29:175:33 10.826365KERSBEEK-MISKOM
101.10130FDEFRANCQ KatiaBELSYNTRA-AB1:29:205:34 10.816387MEISE
102.3030FDE LEENHEER HildeBEL1:29:245:34 10.806405UITBERGEN
103.4216FKORFF DE GIDTS SandraNLD1:29:245:34 10.806406DEN HAAG
104.3873FSANZ GARCIA LolaBEL1:29:245:34 10.806408BERCHEM
105.11187FKOCH LiesbethBEL1:29:255:34 10.806414KAPELLEN (ANTW.
106.19377FVAN WILDERODE IlseBEL1:29:315:34 10.796456SINT-KATELIJNE-
107.12929FBOURGEOIS KatelijneBEL1:29:385:35 10.776524ANTWERPEN
108.11620FGOUBERT EricaBELANTVERPIA1:29:435:35 10.766549ANTWERPEN 1
109.4365FHENDRICKX AnnBEL1:29:505:35 10.756594MERKSEM (ANTWER
110.19248FNAUWELAERTS IlseBEL1:29:525:36 10.756613
111.5718FSTRECK PatriciaBEL1:29:575:36 10.746643ZANDHOVEN
112.8005FVAN DER BIEST KarlaBEL1:29:585:36 10.736651MERE
113.12336FCOOLS MartineBELLESSIUS1:30:125:37 10.716723BORNEM
114.2877FVAN DEN BERGH ElkeBEL1:30:245:37 10.686783SINT-JANS-MOLEN
115.2602FVAN DUN DianeBEL1:30:285:38 10.676814HOOGSTRATEN
116.9550FFEXIS DaphneBELOTN SYSTEMS1:30:365:38 10.666866TURNHOUT
117.5707FSEGERS MithaBEL1:30:425:39 10.656913SINT-NIKLAAS
118.2863FDECEULAER KristienBEL1:30:455:39 10.646938PULDERBOS
119.4564FSCHOENMAKERS GreetBEL1:30:515:39 10.636983WUUSTWEZEL
120.12609FHEYRMAN ElsBELUMICORE1:30:545:39 10.627005BEVEREN-WAAS
121.7170FPERRRAULT ChristineBEL1:30:565:39 10.627015KRAAINEM
122.6647FSAUVILLERS MiekeBEL1:30:565:39 10.627017VOSSELAAR
123.4489FHEIJNEN StefanieNLD1:31:035:40 10.617063RIJEN
124.16822FNOTEN Karian1:31:125:40 10.597118
125.8462FVAN TICHELEN BirgitBEL1:31:165:41 10.587147BRASSCHAAT
126.6434FGEERTS NancyBEL1:31:175:41 10.587154BERENDRECHT
127.11188FBOGERS MargotBEL1:31:195:41 10.587164HOEVENEN
128.16927FSHEARLAW Tine1:31:225:41 10.577190
129.4805FCORSINO ClaudiaBEL1:31:325:42 10.557241KAPELLEN
130.12343FKREKELS KatrijnBELLESSIUS1:31:325:42 10.557243ANTWERPEN
131.8240FCRYNS MartienBEL1:31:375:42 10.547274MERKSEM (ANTWER
132.11957FSTERCKX NadineBEL1:31:415:42 10.537311KASTERLEE
133.6570FGLADMAN KarienBEL1:31:515:43 10.517362GEEL
134.8923FGIELEN PascaleBEL1:31:565:43 10.507400SCHILDE
135.11449FBOGAERT AnnemieBEL1:32:015:44 10.507439WOMMELGEM
136.6848FKEUPPENS StephanieBELTALENT IT1:32:135:44 10.477512DE PINTE
137.13788FVERCRAEYE AnitaBELTOTAL1:32:155:44 10.477531
138.7384FDE KIMPE AnitaBEL1:32:225:45 10.467582BAZEL
139.8169FDE BRUIJN IngridBEL1:32:225:45 10.467585HOOGSTRATEN- ME
140.14075FSTES IsabelleBEL1:32:345:46 10.437652
141.19067FVAN LIEROP AnnBEL1:32:355:46 10.437657
142.3521FWILLEMS ElsBEL1:32:405:46 10.427690BALEN
143.10500FMEURRENS AnneleenBEL1:32:445:46 10.417713HULSHOUT
144.18384FVAN HAUTE NadineBEL1:32:465:46 10.417728
145.18806FGOEDSEELS ElsyBEL1:32:495:46 10.417745
146.3624FPAUWELS DanielleBEL1:32:505:47 10.407755WILRIJK
147.5980FCAMMAERT JasmineBEL1:32:585:47 10.397795SCHOTEN
148.4429FDE MEYER VeerleBEL1:32:595:47 10.397800BRASSCHAAT
149.7569FVEN KristelBEL1:33:085:48 10.377864EKEREN
150.7602FGEERS LutBEL1:33:095:48 10.377869SINT NIKLAAS
151.9345FDE VLEESCHAUWER MaggyBEL1:33:245:49 10.347976IDDERGEM
152.9327FVAN AUDENAERDE VeerleBEL1:33:265:49 10.347989NINOVE
153.18896FVERBRUGGEN NancyBEL1:33:365:49 10.328054
154.9947FWILLEKES LidiaBELDEFENSIE1:33:375:49 10.328064BELSELE
155.12670FJANSEN CarlaBELINTERSOC1:33:585:51 10.288200RAVELS
156.12260FCOOLS ChristopheBELPROVINCIE ANTWERPEN1:34:065:51 10.268248LOKEREN
157.2918FHERNANDEZ AlmaBEL1:34:065:51 10.268251HARELBEKE
158.3317FOLIVEIRA BARROS Maria ManuelaBEL1:34:135:52 10.258280WILRIJK
159.5929FGYSEN GreetBEL1:34:145:52 10.258291ZOERSEL
160.15765FPASTILLERO Emerald1:34:155:52 10.258299
161.2568FVANDERPOORTEN Mary-AnnBEL1:34:195:52 10.248322LEEST
162.3064FDE JONGH NathalieBEL1:34:275:53 10.238381BRASSCHAAT
163.13038FVAN ROMPAEY SiegridBEL1:34:385:53 10.218447MOL
164.10935FGERARD SandraBEL1:34:385:53 10.208449KOEKELBERG
165.10899FDE BACKER NancyBEL1:34:405:53 10.208455KAPELLEN
166.13856FCLAES MarijkeBEL1:34:425:54 10.208477
167.13872FSIEMONS GerdaBEL1:34:495:54 10.198509
168.4683FDUMEZ AnkeBEL1:34:515:54 10.188513ANTWERPEN 5
169.15310FSURMONT Caroline1:34:545:54 10.188530
170.3540FBARTOLOMIVIS ElsBEL1:34:575:54 10.178552HERK-DE-STAD
171.19347FDE BRUYN HildeBEL1:35:035:55 10.168571
172.6871FCROMBAG DE RUIJTER EdmeeNLDJANSSEN CILAG JOHNSON & J1:35:105:55 10.158627KLIMMEN
173.8412FCEULEMANS BirgitBELARGENTA1:35:115:55 10.158636MECHELEN
174.11223FMORICHARD NancyBEL1:35:135:55 10.148653DEURNE (ANTWERP
175.4460FBRYSSINCK KathleenBEL1:35:135:55 10.148655PULLE
176.18473FELST IngridBEL1:35:135:55 10.148657
177.1714FPERSOONS SandraBEL1:35:165:56 10.148670SCHILDE
178.2467FVAN DER STEEN MyriamBEL1:35:215:56 10.138710HEVERLEE
179.9207FHALANS HilleBEL1:35:245:56 10.128722TEMSE
180.18981FMOLLEN EllyBEL1:35:265:56 10.128729
181.6290FVANDERBRUGGEN ChrisBEL1:35:275:56 10.128736ANTWERPEN
182.2354FGEUENS GreetBEL1:35:345:57 10.118791HAMONT ACHEL
183.14761FVN DE VYVER NathalieBEL1:35:345:57 10.118792
184.11231FVAN DESSEL KateBEL1:35:355:57 10.108797BERCHEM (ANTWER
185.14226FMANNAERTS KristelBEL1:35:375:57 10.108809
186.11232FVAN SANDE CarlaBEL1:35:385:57 10.108822WILRIJK (ANTWER
187.14450FSCHEELEN Riet1:35:425:57 10.098840
188.19430FVAN DE VELDE MiekeBEL1:35:455:57 10.098857
189.11318FGEUDENS TinneBELNEW HOLLAND AGRICULTURE1:35:555:58 10.078908BEERSE
190.13042FVANGEENBERGHE AnjaBEL1:35:565:58 10.078911MELSELE
191.10964FVAN AKEN ElsBEL1:35:575:58 10.078916OUD-TURNHOUT
192.10616FDE JONGH BeaNLD1:36:045:59 10.058941SLEEUWIJK
193.7183FWYNS ElsjeBEL1:36:065:59 10.058952WILRIJK
194.12921FAARAB RachidaBEL1:36:065:59 10.058953BERENDRECHT
195.12512FVAN ERTVELDE ValerieBEL1:36:095:59 10.048973SCHELLE
196.12395FDEFOUR KathleenBELINTERSOC1:36:095:59 10.048976LOCHRISTI
197.4696FGOESSENS ElsBEL1:36:206:00 10.039038OUTER
DNF: abandon; DSQ: disqualifié; Vitesse en km/h
ChronoRace - Electronic Timing - www.chronorace.be